Location: Unspecified
(0.0000°N, 0.0000°E)
Time: 18:52:16
(UTC+00:00)

THORAD DELTA 1 DEB - Pass Details

Date: 14 February 2026
Orbit: 1442 x 1568 km, 101.4° (Epoch: 22 February)

Event Time Altitude Azimuth Distance (km) Brightness Sun altitude
Exits shadow 21:08:42 54° 207° (SSW) 1,845 ? -42.3°
Drops below altitude 10° 21:15:09 10° 198° (SSW) 3,754 ? -43.8°
Sets 21:18:00 0° 197° (SSW) 4,731 ? -44.5°
